Location: Caltech
(34.1382°N, 118.1253°W)
Time: 17:30:15
(UTC-07:00)

Cosmos 1833 Rocket - Visible Passes

Search period start: 21 May 2018 00:00
Search period end: 31 May 2018 00:00
Orbit: 833 x 839 km, 71.0° (Epoch: 21 May)

Date Brightness Start Highest point End Pass type
(mag) Time Alt. Az. Time Alt. Az. Time Alt. Az.
21 May 6.1 04:53:25 10° NNE 04:56:10 14° NE 04:58:53 10° E visible
21 May 5.4 21:23:04 10° WSW 21:27:11 20° WNW 21:31:18 10° N visible
22 May 6.2 04:37:06 10° NNE 04:39:23 12° NE 04:41:40 10° ENE visible
22 May 5.4 21:06:07 10° WSW 21:10:26 22° WNW 21:14:46 10° N visible
23 May 6.3 04:20:55 10° NE 04:22:36 11° NE 04:24:17 10° ENE visible
23 May 5.3 20:49:11 10° WSW 20:53:41 24° WNW 20:58:12 10° N visible
24 May 6.4 04:05:11 10° NE 04:05:50 10° NE 04:06:28 10° ENE visible
24 May 5.2 20:32:17 10° WSW 20:36:57 26° WNW 20:41:37 10° N visible
25 May 5.1 20:15:23 10° WSW 20:20:12 29° WNW 20:25:03 10° N visible
26 May 3.2 05:11:35 10° NNW 05:17:11 69° ENE 05:22:45 10° SSE visible
27 May 3.3 04:54:55 10° NNW 05:00:29 63° ENE 05:06:01 10° SSE visible
28 May 3.4 04:38:15 10° NNW 04:43:46 57° ENE 04:49:16 10° SE visible
29 May 3.6 04:21:35 10° N 04:27:04 52° ENE 04:32:30 10° SE visible
30 May 3.7 04:04:57 10° N 04:10:21 47° ENE 04:15:43 10° SE visible
